Torna al catalogo

METEOR 2-21 DEB

LostPO
NORAD 40711·DEBRIS·🇷🇺 Russia

Lanciato Aug 31, 1993 da Plesetsk Cosmodrome

Loading…

Prossimi Passaggi (prossime 24 ore)

TLE

ObsoletoSource: Space-Track

Epoca: Oct 21, 2022, 02:54 UTC

1 40711U 93055D   22294.12112587  .00002655  00000-0  18409-2 0  9993
2 40711  82.5463 219.8727 0010090 151.3089 208.8636 13.98576998913939

Traccia METEOR 2-21 DEB in tempo reale con AllMySat

Download on the App Store